When you browse on this site, cookies collect data to enhance your experience and personalize the content and advertising you see.
Visit our Privacy Policy to learn more. By continuing to use the site, you agree to this use of cookies and data.

Hourly Weather Szeged

Today, 15 August, Saturday

Time Temperature Precipitation Wind Pressure Humidity
00:00 +21°C° 0 mm 1 mps 752 mmHg 77%
01:00 +19°C° 0 mm 0 mps 752 mmHg 80%
02:00 +19°C° 0 mm 0 mps 751 mmHg 80%
03:00 +21°C° 0 mm 1 mps 751 mmHg 81%
04:00 +20°C° 0 mm 1 mps 751 mmHg 82%
05:00 +22°C° 0 mm 1 mps 751 mmHg 78%
06:00 +23°C° 0 mm 1 mps 752 mmHg 75%
07:00 +24°C° 0 mm 1 mps 752 mmHg 72%
08:00 +25°C° 0 mm 1 mps 752 mmHg 67%
09:00 +27°C° 0 mm 1 mps 752 mmHg 62%
10:00 +28°C° 0 mm 1 mps 752 mmHg 57%
11:00 +29°C° 0.1 mm 1 mps 752 mmHg 54%
12:00 +30°C° 0.1 mm 1 mps 751 mmHg 50%
13:00 +30°C° 0 mm 2 mps 752 mmHg 46%
14:00 +30°C° 0 mm 1 mps 751 mmHg 46%
15:00 +30°C° 0 mm 1 mps 751 mmHg 45%
16:00 +31°C° 0 mm 1 mps 751 mmHg 45%
17:00 +29°C° 0 mm 1 mps 751 mmHg 50%
18:00 +28°C° 0 mm 1 mps 751 mmHg 54%
19:00 +26°C° 0 mm 1 mps 751 mmHg 59%
20:00 +25°C° 0.3 mm 1 mps 751 mmHg 63%
21:00 +24°C° 0.3 mm 1 mps 751 mmHg 67%
22:00 +23°C° 0.3 mm 1 mps 751 mmHg 70%
23:00 +23°C° 0 mm 1 mps 751 mmHg 72%

Tomorrow, 16 August, Sunday

Time Temperature Precipitation Wind Pressure Humidity
00:00 +22°C° 0 mm 1 mps 751 mmHg 74%
01:00 +22°C° 0 mm 1 mps 751 mmHg 76%
02:00 +21°C° 0 mm 1 mps 751 mmHg 78%
03:00 +21°C° 0 mm 1 mps 751 mmHg 80%
04:00 +21°C° 0 mm 1 mps 752 mmHg 82%
05:00 +22°C° 0 mm 1 mps 752 mmHg 79%
06:00 +23°C° 0 mm 1 mps 752 mmHg 75%
07:00 +24°C° 0 mm 1 mps 752 mmHg 72%
08:00 +25°C° 0 mm 1 mps 752 mmHg 66%
09:00 +27°C° 0 mm 1 mps 753 mmHg 60%
10:00 +29°C° 0 mm 1 mps 753 mmHg 54%
11:00 +29°C° 0.1 mm 1 mps 753 mmHg 51%
12:00 +30°C° 0.1 mm 1 mps 752 mmHg 48%
13:00 +31°C° 0.1 mm 1 mps 752 mmHg 46%
14:00 +31°C° 0 mm 1 mps 752 mmHg 46%
15:00 +31°C° 0 mm 1 mps 752 mmHg 47%
16:00 +30°C° 0 mm 1 mps 752 mmHg 48%
17:00 +29°C° 0 mm 1 mps 752 mmHg 52%
18:00 +28°C° 0 mm 1 mps 752 mmHg 57%
19:00 +26°C° 0 mm 1 mps 752 mmHg 61%
20:00 +26°C° 0.2 mm 2 mps 752 mmHg 62%
21:00 +25°C° 0.2 mm 3 mps 752 mmHg 63%
22:00 +25°C° 0.2 mm 3 mps 752 mmHg 63%
23:00 +24°C° 0.2 mm 3 mps 752 mmHg 64%

Day after tomorrow, 17 August, Monday

Time Temperature Precipitation Wind Pressure Humidity
00:00 +22°C° 0.2 mm 3 mps 752 mmHg 65%
01:00 +22°C° 0.2 mm 3 mps 752 mmHg 65%
02:00 +21°C° 0.1 mm 3 mps 752 mmHg 66%
03:00 +21°C° 0.1 mm 3 mps 752 mmHg 67%
04:00 +20°C° 0.1 mm 3 mps 752 mmHg 68%
05:00 +21°C° 0 mm 4 mps 752 mmHg 64%
06:00 +22°C° 0 mm 4 mps 752 mmHg 60%
07:00 +25°C° 0 mm 5 mps 752 mmHg 57%
08:00 +26°C° 0 mm 5 mps 752 mmHg 52%
09:00 +28°C° 0 mm 5 mps 752 mmHg 47%
10:00 +30°C° 0 mm 6 mps 752 mmHg 42%
11:00 +32°C° 0 mm 6 mps 751 mmHg 40%
12:00 +33°C° 0 mm 6 mps 751 mmHg 39%
13:00 +34°C° 0 mm 6 mps 751 mmHg 37%
14:00 +34°C° 0 mm 5 mps 750 mmHg 38%
15:00 +34°C° 0 mm 5 mps 750 mmHg 38%
16:00 +34°C° 0 mm 5 mps 750 mmHg 38%
17:00 +32°C° 0.4 mm 4 mps 750 mmHg 45%
18:00 +29°C° 0.4 mm 4 mps 750 mmHg 51%
19:00 +27°C° 0.4 mm 4 mps 750 mmHg 58%
20:00 +26°C° 0.4 mm 4 mps 750 mmHg 61%
21:00 +25°C° 0.4 mm 4 mps 750 mmHg 64%
22:00 +23°C° 0.4 mm 5 mps 750 mmHg 67%
23:00 +22°C° 0.1 mm 4 mps 750 mmHg 68%

18 August, Tuesday

Time Temperature Precipitation Wind Pressure Humidity
00:00 +21°C° 0.1 mm 4 mps 750 mmHg 70%
01:00 +21°C° 0.1 mm 4 mps 750 mmHg 71%
02:00 +21°C° 0.3 mm 3 mps 750 mmHg 73%
03:00 +20°C° 0.3 mm 3 mps 750 mmHg 75%
04:00 +20°C° 0.3 mm 3 mps 750 mmHg 78%
05:00 +21°C° 0.2 mm 3 mps 750 mmHg 74%
06:00 +23°C° 0.2 mm 2 mps 750 mmHg 70%
07:00 +24°C° 0.2 mm 2 mps 750 mmHg 66%
08:00 +26°C° 0 mm 2 mps 750 mmHg 60%
09:00 +28°C° 0 mm 2 mps 750 mmHg 54%
10:00 +30°C° 0 mm 2 mps 750 mmHg 49%
11:00 +31°C° 0 mm 3 mps 750 mmHg 46%
12:00 +33°C° 0 mm 3 mps 750 mmHg 42%
13:00 +34°C° 0 mm 4 mps 749 mmHg 39%
14:00 +34°C° 0 mm 4 mps 749 mmHg 41%
15:00 +33°C° 0 mm 4 mps 749 mmHg 42%
16:00 +33°C° 0 mm 4 mps 749 mmHg 44%
17:00 +29°C° 0.3 mm 5 mps 749 mmHg 53%
18:00 +27°C° 0.3 mm 6 mps 749 mmHg 61%
19:00 +24°C° 0.3 mm 8 mps 749 mmHg 70%
20:00 +23°C° 0.3 mm 6 mps 750 mmHg 73%
21:00 +22°C° 0.3 mm 4 mps 750 mmHg 76%
22:00 +21°C° 0.3 mm 2 mps 750 mmHg 79%
23:00 +21°C° 0 mm 2 mps 750 mmHg 81%

19 August, Wednesday

Time Temperature Precipitation Wind Pressure Humidity
00:00 +21°C° 0 mm 1 mps 750 mmHg 83%
01:00 +21°C° 0 mm 1 mps 750 mmHg 84%
02:00 +20°C° 0 mm 1 mps 750 mmHg 85%
03:00 +20°C° 0 mm 1 mps 750 mmHg 85%
04:00 +20°C° 0 mm 1 mps 750 mmHg 86%
05:00 +21°C° 0 mm 1 mps 750 mmHg 81%
06:00 +21°C° 0 mm 2 mps 750 mmHg 76%
07:00 +23°C° 0 mm 2 mps 750 mmHg 71%
08:00 +25°C° 0 mm 2 mps 751 mmHg 63%
09:00 +26°C° 0 mm 3 mps 751 mmHg 55%
10:00 +28°C° 0 mm 3 mps 751 mmHg 47%
11:00 +29°C° 0 mm 3 mps 750 mmHg 44%
12:00 +30°C° 0 mm 3 mps 750 mmHg 41%
13:00 +30°C° 0 mm 3 mps 750 mmHg 38%
14:00 +30°C° 0 mm 3 mps 750 mmHg 40%
15:00 +30°C° 0 mm 4 mps 749 mmHg 41%
16:00 +29°C° 0 mm 4 mps 749 mmHg 42%
17:00 +28°C° 0 mm 3 mps 749 mmHg 47%
18:00 +26°C° 0 mm 3 mps 749 mmHg 51%
19:00 +25°C° 0 mm 2 mps 749 mmHg 55%
20:00 +24°C° 0 mm 2 mps 749 mmHg 58%
21:00 +23°C° 0 mm 2 mps 750 mmHg 61%
22:00 +21°C° 0 mm 2 mps 750 mmHg 64%
23:00 +21°C° 0 mm 2 mps 750 mmHg 65%

20 August, Thursday

Time Temperature Precipitation Wind Pressure Humidity
00:00 +21°C° 0 mm 2 mps 750 mmHg 66%
01:00 +20°C° 0 mm 2 mps 750 mmHg 68%
02:00 +20°C° 0 mm 2 mps 750 mmHg 69%
03:00 +19°C° 0 mm 2 mps 750 mmHg 69%
04:00 +19°C° 0 mm 2 mps 750 mmHg 70%
05:00 +20°C° 0 mm 2 mps 751 mmHg 68%
06:00 +21°C° 0 mm 3 mps 751 mmHg 65%
07:00 +22°C° 0 mm 3 mps 751 mmHg 62%
08:00 +25°C° 0 mm 3 mps 751 mmHg 56%
09:00 +27°C° 0 mm 3 mps 752 mmHg 50%
10:00 +29°C° 0 mm 3 mps 752 mmHg 44%
11:00 +30°C° 0 mm 3 mps 752 mmHg 41%
12:00 +32°C° 0 mm 4 mps 751 mmHg 38%
13:00 +33°C° 0 mm 4 mps 751 mmHg 35%
14:00 +33°C° 0 mm 4 mps 751 mmHg 35%
15:00 +33°C° 0 mm 4 mps 751 mmHg 35%
16:00 +33°C° 0 mm 4 mps 751 mmHg 36%
17:00 +30°C° 0 mm 3 mps 751 mmHg 40%
18:00 +28°C° 0 mm 2 mps 752 mmHg 44%
19:00 +26°C° 0 mm 2 mps 752 mmHg 49%
20:00 +26°C° 0 mm 2 mps 752 mmHg 51%
21:00 +25°C° 0 mm 1 mps 753 mmHg 52%
22:00 +24°C° 0 mm 1 mps 753 mmHg 54%
23:00 +24°C° 0 mm 1 mps 753 mmHg 55%
Show more